User: anonymous   Login
Location: ????????
(55.3939°N, 37.4780°E)
Time: 17:34:51
(UTC+00:00)
Language:

Helios 1B rocket - Orbit

View from above orbital plane
View from above orbital plane
View from above satellite
View from above satellite

Ground track
Ground track

The orbit is defined by the following mean orbital elements,

1 25979U          26159.23356782 +.00000000 +00000-0 +46064-3 0 00007
2 25979  98.1602 250.6698 0004867 128.7404 231.4272 15.34609150    02
Epoch (UTC): 08 June 2026 05:36:20
Eccentricity: 0.0004867
inclination: 98.1602°
perigee height: 459 km
apogee height: 465 km
right ascension of ascending node: 250.6698°
argument of perigee: 128.7404°
revolutions per day: 15.34609150
mean anomaly at epoch: 231.4272°

The dashed part of the orbit path shows where the satellite is in the earth's shadow,  

DLR